This demonstration page uses our WeatherBlox Daily Observations layout. Learn more.

Left ArrowRight Arrow

Hourly Observations for November 30, 2015

Temp ( °F °C ) Dew Point ( °F °C ) Humidity (%) Winds ( mph kmh ) Pressure ( in mb ) Visibility ( mi km ) Precip ( " mm )
12:53 am 00:53 Cloudy 64 17.8 56 13.3 75 75 W 3 6 30.07 1018 10 16 0.00 0.00
1:53 am 01:53 Cloudy 63 17.2 57 13.9 81 81 Calm 30.06 1018 10 16 0.00 0.00
2:53 am 02:53 Cloudy 63 17.2 56 13.3 78 78 Calm 30.05 1018 10 16 0.00 0.00
3:53 am 03:53 Mostly Cloudy 61 16.1 57 13.9 87 87 Calm 30.05 1018 10 16 0.00 0.00
4:53 am 04:53 Cloudy 62 16.7 57 13.9 84 84 Calm 30.04 1017 10 16 0.00 0.00
5:53 am 05:53 Cloudy 61 16.1 56 13.3 84 84 Calm 30.05 1018 10 16 0.00 0.00
6:53 am 06:53 Cloudy 61 16.1 57 13.9 87 87 Calm 30.07 1018 10 16 0.00 0.00
7:53 am 07:53 Cloudy 63 17.2 55 12.8 76 76 SE 5 7 30.08 1019 10 16 0.00 0.00
8:53 am 08:53 Cloudy 63 17.2 56 13.3 78 78 SSE 5 7 30.09 1019 10 16 0.00 0.00
9:53 am 09:53 Cloudy 64 17.8 57 13.9 78 78 SSE 5 7 30.11 1020 10 16 0.00 0.03
10:53 am 10:53 Cloudy 66 18.9 58 14.4 75 75 S 5 7 30.11 1020 10 16 0.00 0.03
11:53 am 11:53 Cloudy 67 19.4 58 14.4 73 73 Calm 30.11 1020 10 16 0.00 0.00
12:53 pm 12:53 Cloudy 70 21.1 58 14.4 66 66 SSW 6 9 30.07 1018 10 16 0.00 0.00
1:53 pm 13:53 Cloudy 70 21.1 51 10.6 51 51 SW 8 13 30.06 1018 10 16 0.00 0.00
2:53 pm 14:53 Cloudy 71 21.7 53 11.7 53 53 SSW 5 7 30.04 1017 10 16 0.00 0.00
3:53 pm 15:53 Partly Cloudy 72 22.2 56 13.3 57 57 Calm 30.04 1017 10 16 0.00 0.00
4:53 pm 16:53 Mostly Cloudy 71 21.7 54 12.2 55 55 SSW 3 6 30.05 1018 10 16 0.00 0.00
5:53 pm 17:53 Mostly Clear 68 20 56 13.3 65 65 Calm 30.05 1018 10 16 0.00 0.00
6:53 pm 18:53 Clear 67 19.4 57 13.9 71 71 SE 5 7 30.06 1018 10 16 0.00 0.00
7:53 pm 19:53 Clear 62 16.7 57 13.9 84 84 Calm 30.07 1018 10 16 0.00 0.00
8:53 pm 20:53 Clear 66 18.9 58 14.4 75 75 SE 3 6 30.06 1018 10 16 0.00 0.00
9:53 pm 21:53 Clear 60 15.6 57 13.9 90 90 Calm 30.07 1018 10 16 0.00 0.00
10:53 pm 22:53 Partly Cloudy 59 15 56 13.3 90 90 Calm 30.07 1018 10 16 0.00 0.00
11:53 pm 23:53 Mostly Cloudy 59 15 56 13.3 90 90 Calm 30.06 1018 10 16 0.00 0.00

Powered by AerisWeather